Location: Romentino
(45.4667°N, 8.7000°E)
Time: 11:42:39
(UTC+00:00)

Daily predictions for brighter satellites

Satellite Brightness Start Highest point End
(mag) Time Altitude Azimuth Time Altitude Azimuth Time Altitude Azimuth
Cosmos 1606 2.9 19:27:21 10° N 19:31:04 51° ENE 19:34:45 10° SSE
Nadezhda 4 Rocket 4.3 19:25:35 10° SSE 19:31:23 46° E 19:37:17 10° NNE
Cosmos 1242 Rocket 3.6 19:30:11 10° NNW 19:33:40 46° W 19:37:03 10° S
Landsat 7 4.2 19:33:04 10° SE 19:37:38 48° ENE 19:42:12 10° N
SPOT 3 Rocket 4.0 19:34:22 10° SE 19:39:21 47° ENE 19:44:22 10° N
ISS -3.3 19:36:05 10° WNW 19:39:26 57° NNE 19:42:46 10° ESE
Cosmos 1825 3.6 19:36:26 10° SSW 19:40:00 42° WNW 19:43:36 10° N
IGS 5A 3.7 19:36:46 10° SSE 19:40:49 55° ENE 19:44:53 10° N
BREEZE-M DEB (TANK) 4.0 19:29:42 10° W 19:43:12 66° NNW 19:46:56 10° ENE
Cosmos 2058 3.5 19:40:38 10° SSW 19:44:46 62° W 19:48:57 10° N
Cosmos 1980 Rocket 2.2 19:39:09 10° NNW 19:44:49 88° ENE 19:50:28 10° SSE
Cosmos 2369 4.0 19:39:29 10° NNW 19:45:07 69° WSW 19:50:43 10° SSE
Cosmos 2221 2.9 19:45:43 10° NNW 19:50:00 68° W 19:54:18 10° S
RESURS DK-1 2.5 19:46:13 10° SSW 19:50:22 79° WNW 19:54:33 10° NNE
ERBS 4.0 19:48:12 10° WNW 19:50:54 25° SW 19:53:36 10° S
COSMOS 2406 4.4 19:48:17 10° SW 19:53:46 48° WNW 19:59:19 10° NNE
BREEZE-M DEB (TANK) 3.2 19:50:50 10° SW 19:54:06 58° SE 20:04:31 10° ENE
Cosmos 2322 Rocket 3.5 19:50:30 10° N 19:55:20 28° NE 19:59:58 11° ESE
Cosmos 304 Rocket 4.3 19:55:28 10° N 20:00:05 45° ENE 20:03:55 14° SE
BREEZE-M DEB (TANK) 3.5 19:57:17 10° WNW 20:00:24 88° NNE 20:09:24 11° ESE
Cosmos 1538 Rocket 3.9 19:55:56 10° S 20:01:06 70° ESE 20:06:17 10° NNE
Cosmos 1933 4.0 19:57:39 10° N 20:01:29 40° ENE 20:04:32 15° SE
Resurs 01 Rocket 1.7 19:59:01 10° SSE 20:03:27 86° W 20:07:57 10° NNW
Cosmos 2151 3.1 20:01:24 10° S 20:05:32 55° E 20:09:43 10° NNE
ERS-2 2.4 20:02:20 10° N 20:05:58 69° WNW 20:09:34 10° SSW
Cosmos 2098 Rocket 2.4 20:03:47 10° S 20:06:50 83° W 20:10:28 10° N
Gbstr 26 Del rocket 3.2 20:05:53 10° WNW 20:09:33 54° NNE 20:12:56 13° E
Meteor 2-3 Rocket 4.0 20:05:15 10° SSE 20:10:41 51° E 20:16:13 10° NNE
CARTOSAT-1 4.2 20:09:29 16° SE 20:12:32 40° ENE 20:16:36 10° N
Cosmos 2219 Rocket 4.4 20:13:43 10° N 20:16:14 13° NE 20:18:43 10° ENE
Ariane Rocket 4.0 20:13:05 10° S 20:17:56 44° W 20:22:47 10° NNW
SL-16 R/B 2.5 20:18:34 10° NNW 20:24:09 55° ENE 20:28:03 20° SE
Cosmos 1782 3.2 20:24:05 10° N 20:27:58 46° ENE 20:30:03 24° SE
Cosmos 371 Rocket 3.8 20:24:02 10° NNW 20:28:45 55° WSW 20:32:51 13° S
ARIANE 5 R/B 3.0 20:26:51 21° SE 20:29:37 51° ENE 20:33:57 10° N
Cosmos 1271 Rocket 2.7 20:30:34 10° N 20:34:34 77° E 20:36:55 24° SSE
SPOT 1/Viking Rocket 3.7 20:31:18 14° S 20:35:46 76° WSW 20:41:02 10° NNW
USA 276 2.1 20:34:02 10° WNW 20:37:12 76° NNE 20:38:32 31° ESE
Cosmos 2195 Rocket 4.4 20:31:42 10° S 20:37:49 82° E 20:43:57 10° N
BREEZE-M DEB (TANK) 2.7 20:35:05 10° WNW 20:38:12 70° SSW 20:43:14 20° SE
Cosmos 1766 Rocket 3.9 20:37:42 24° SSE 20:39:57 45° E 20:44:09 10° NNE
Cosmos 1151 Rocket 3.3 20:37:19 10° N 20:41:36 53° ENE 20:43:40 28° SE
ATLAS 5 CENTAUR R/B 4.3 20:39:11 10° NNW 20:42:35 17° NNE 20:46:20 10° ENE
ATLAS 2AS CENTAUR R/B 4.3 20:37:50 10° WSW 20:45:16 42° NW 20:52:29 10° NNE
Cosmos 1328 Rocket 4.0 20:41:33 10° N 20:45:50 45° ENE 20:47:40 29° SE
Cosmos 923 Rocket 4.0 20:42:09 10° SSW 20:47:29 78° ESE 20:52:51 10° NNE
Terra 2.2 20:47:56 27° SE 20:50:12 48° ENE 20:54:48 10° N
ATLAS 3B R/B 3.5 20:44:30 10° NW 20:51:19 49° WSW 20:56:42 17° S
SPOT 5 2.6 20:50:48 30° SSE 20:52:51 70° ENE 20:57:14 10° N
USA 267 3.8 20:48:52 10° ENE 20:54:38 32° SE 20:59:02 16° S
Cosmos 1092 Rocket 4.3 20:49:41 10° SSW 20:55:55 71° W 21:02:15 10° N
Cosmos 2082 Rocket 4.2 20:51:22 10° WSW 20:56:19 31° NW 21:01:19 10° N
Cosmos 2056 Rocket 3.9 20:54:27 10° NNW 20:59:44 53° ENE 21:02:09 30° SE
NOSS 2-1 (C) 3.7 21:00:51 33° E 21:00:51 33° E 21:03:07 10° NE
BREEZE-M DEB (TANK) 3.2 21:00:41 10° WNW 21:02:42 32° N 21:03:12 27° NNE
ERS-1 Rocket 2.9 21:00:35 28° SSE 21:03:15 89° E 21:08:19 10° NNW
SL-27 R/B 3.2 21:06:23 35° E 21:06:23 35° E 21:09:23 10° NE
Meteor 2-21 4.5 21:02:38 24° S 21:06:26 66° E 21:12:32 10° NNE
Cosmos 2360 Rocket 2.5 21:01:59 10° NNW 21:07:32 55° ENE 21:10:08 30° ESE
NOSS 2-1 (D) 3.3 21:08:18 42° E 21:08:18 42° E 21:10:54 10° NE
Cosmos 2026 Rocket 4.3 21:02:34 10° SSW 21:08:54 70° W 21:15:11 10° N
GP-B 3.8 21:08:57 10° N 21:13:16 52° W 21:16:14 19° SSW
ISS -2.3 21:13:13 10° W 21:15:56 25° SW 21:15:56 25° SW
Spot 2 Rocket 4.2 21:14:48 21° SSW 21:17:56 48° W 21:22:54 10° NNW
Cosmos 2333 Rocket 3.2 21:12:49 10° NNW 21:18:00 35° NE 21:20:38 23° E
Meteor 1-10 Rocket 4.3 21:15:14 10° N 21:20:46 63° ENE 21:22:52 37° SE
Cosmos 1371 Rocket 4.0 21:15:52 10° NNW 21:21:16 88° ENE 21:23:22 39° SSE
Cosmos 2112 Rocket 4.0 21:17:49 16° SSW 21:22:08 83° WNW 21:27:26 10° NNE
Cosmos 1812 2.6 21:18:23 10° N 21:22:15 83° W 21:23:03 55° S
Cosmos 1680 Rocket 3.7 21:17:27 10° SSW 21:22:38 71° WNW 21:27:55 10° NNE
Cosmos 1500 Rocket 4.3 21:22:35 35° E 21:22:51 36° E 21:26:54 10° NNE
Cosmos 220 Rocket 4.0 21:20:19 10° NNW 21:24:39 74° WSW 21:25:50 47° S
Okean 3 Rocket 4.1 21:24:58 24° SSW 21:27:30 59° WNW 21:31:59 10° N
USA 234 4.1 21:22:54 10° E 21:29:03 45° NNE 21:35:13 10° NW
Cosmos 292 Rocket 3.9 21:27:45 10° NNW 21:32:30 60° ENE 21:33:40 45° ESE
Meteor 2-16 Rocket 4.4 21:35:25 37° S 21:37:57 73° E 21:44:02 10° NNE
Cosmos 2237 Rocket 4.4 21:34:40 10° N 21:38:10 16° NE 21:41:40 10° E
Cosmos 2322 Rocket 2.6 21:34:13 10° NW 21:39:41 53° WSW 21:41:46 34° SSW
Cosmos 1408 Rocket 3.5 21:40:12 49° SSW 21:41:20 80° W 21:45:42 10° N
Cosmos 1743 Rocket 3.7 21:42:22 55° ESE 21:42:43 56° E 21:47:04 10° NNE
Cosmos 2315 Rocket 4.2 21:43:59 10° N 21:50:14 59° ENE 21:52:17 41° SE
Sich 1 4.2 21:51:50 30° E 21:51:50 30° E 21:55:15 10° NNE
Cosmos 2084 3.9 21:48:52 18° WSW 21:51:43 58° NW 21:55:51 10° NNE
Cosmos 2266 Rocket 3.9 21:53:30 41° S 21:55:51 86° E 22:02:07 10° N
Gbstr 26 Del rocket 4.0 21:52:43 10° WNW 21:55:27 30° WSW 21:55:27 30° WSW
Cosmos 1862 4.4 21:57:03 31° WSW 21:58:14 40° WNW 22:02:00 10° N
Cosmos 1048 Rocket 4.5 21:59:25 41° E 21:59:25 41° E 22:04:07 10° NE
Cosmos 2219 Rocket 2.4 21:55:55 10° NNW 22:01:27 58° ENE 22:02:58 44° ESE
NOSS 2-1 (E) 4.0 22:05:22 38° WNW 22:05:52 42° NW 22:09:11 10° NNE
Cosmos 2228 Rocket 3.0 22:01:29 10° N 22:05:54 71° E 22:06:05 70° E
Cosmos 1515 Rocket 4.2 22:01:43 10° NNW 22:05:59 46° W 22:06:43 41° WSW
H-2A R/B 4.1 22:02:09 10° N 22:06:15 53° WNW 22:07:15 42° WSW
SL-16 R/B 3.8 22:03:22 10° NW 22:07:52 25° WSW 22:09:55 20° SW
COSMOS 2455 2.8 22:09:10 51° S 22:10:36 68° ESE 22:16:36 10° NE
NOSS 3-1 (C) 4.0 22:03:12 10° NW 22:10:45 88° NE 22:14:30 39° SE
Cosmos 2333 4.1 22:05:25 10° NNW 22:11:03 86° WSW 22:12:13 58° SSE
Cosmos 1420 Rocket 4.3 22:07:29 10° NNW 22:12:42 57° WSW 22:13:43 48° SSW
Cosmos 883 Rocket 4.5 22:08:49 10° N 22:15:03 79° W 22:16:57 48° S
Cosmos 1655 Rocket 4.4 22:12:44 31° SSW 22:15:48 62° WNW 22:22:10 10° N
COSMOS 2428 2.9 22:10:32 10° NNW 22:16:13 62° ENE 22:17:35 48° ESE
Spot 4 3.7 22:21:45 71° SE 22:22:10 78° ENE 22:27:01 10° N
USA 229 DEB 4.0 22:17:36 10° NW 22:24:56 73° NE 22:28:16 37° SE
USA 229 4.0 22:17:42 10° NW 22:25:02 72° NE 22:28:23 37° SE
Terra 3.7 22:26:49 18° WSW 22:28:12 20° W 22:31:44 10° NW
ATLAS 5 CENTAUR R/B 2.8 22:22:53 10° NNW 22:28:18 55° NE 22:30:39 35° ESE
COSMOS 2487 3.7 22:31:49 38° N 22:31:49 38° N 22:34:05 10° NNE
Cosmos 1452 Rocket 3.4 22:27:01 10° NNW 22:32:17 75° WSW 22:32:49 68° SSW
Cosmos 1707 Rocket 3.8 22:28:13 10° N 22:32:18 59° ENE 22:32:18 59° ENE
ALOS 2 2.9 22:33:57 58° ENE 22:33:57 58° ENE 22:38:12 10° N
USA 267 3.3 22:31:29 10° NE 22:38:03 82° NW 22:44:36 10° WSW
Meteor 1-27 Rocket 4.4 22:37:39 10° NNW 22:43:00 45° W 22:44:14 39° SW
SL-08 ROCKET BODY 4.4 22:44:13 57° SE 22:45:11 65° E 22:51:15 10° NNE
NOSS 3-1 (A) 4.0 22:37:53 10° NW 22:45:27 89° ENE 22:48:48 42° SE
Cosmos 1805 Rocket 4.1 22:49:13 49° W 22:49:24 50° WNW 22:53:44 10° N
Nadezhda 2 Rocket 4.4 22:49:09 57° S 22:50:36 88° W 22:57:03 10° N
Cosmos 2360 Rocket 3.6 22:46:42 10° NW 22:51:08 24° WSW 22:51:53 24° WSW
Meteor 1-20 Rocket 4.3 22:54:51 56° SW 22:55:54 68° WNW 23:01:35 10° N
Cosmos 1110 Rocket 3.8 22:53:00 10° NNW 22:58:22 84° WSW 22:58:40 79° S
Cosmos 1980 4.1 22:54:29 10° NNW 23:00:05 55° ENE 23:01:19 46° ESE
Cosmos 2333 Rocket 2.8 22:57:04 10° NW 23:02:19 41° WSW 23:02:38 40° WSW
Cosmos 1331 Rocket 3.8 22:58:31 10° NNW 23:03:47 84° WSW 23:03:58 82° SSW
Cosmos 1244 Rocket 4.5 23:03:47 56° SSW 23:05:06 75° W 23:11:19 10° N
USA 234 3.1 23:10:02 52° SE 23:11:48 79° SW 23:18:24 10° NW
Cosmos 1340 Rocket 4.4 23:13:35 27° ENE 23:13:35 27° ENE 23:15:59 10° NNE
Nimbus 7 Rocket 4.3 23:07:09 10° NNE 23:13:12 77° ESE 23:14:02 65° SSE
NOSS 0 Rocket 3.8 23:08:47 10° NNW 23:15:03 84° WSW 23:16:01 65° S
Cosmos 2297 Rocket 2.5 23:17:11 51° ESE 23:17:11 51° ESE 23:22:38 10° NE
Okean 1-7 4.2 23:15:15 10° N 23:18:54 34° ENE 23:18:54 34° ENE
Lacrosse 5 2.6 23:21:58 40° E 23:21:58 40° E 23:25:35 10° ENE
Cosmos 2237 Rocket 2.2 23:17:31 10° NNW 23:23:14 77° ENE 23:24:02 64° ESE
Cosmos 2084 Rocket 3.9 23:20:27 10° NW 23:24:07 60° N 23:24:07 60° N
Cosmos 2242 Rocket 4.4 23:21:07 10° N 23:25:08 41° ENE 23:25:08 41° ENE
Cosmos 1500 4.3 23:26:57 41° NW 23:26:57 41° NW 23:29:51 10° N
Meteor 1-18 Rocket 4.3 23:20:35 10° NNW 23:26:21 62° W 23:26:56 59° SW
Cosmos 1470 Rocket 3.8 23:29:03 65° N 23:29:03 65° N 23:32:46 10° N
Cosmos 2227 Rocket 2.6 23:28:53 48° ESE 23:28:53 48° ESE 23:34:16 10° NE
Cosmos 909 Rocket 4.4 23:31:44 48° SE 23:32:31 50° ESE 23:39:40 10° NE
Cosmos 1633 Rocket 3.8 23:33:06 45° WNW 23:33:06 45° WNW 23:37:02 10° N
Cosmos 1933 Rocket 3.9 23:35:34 62° NE 23:35:34 62° NE 23:39:30 10° NNE
Meteor 1-11 Rocket 4.1 23:41:19 48° ESE 23:41:47 49° E 23:47:04 10° NNE
Cosmos 2219 Rocket 3.7 23:40:42 10° NW 23:44:40 22° W 23:44:40 22° W
Cosmos 2263 Rocket 4.4 23:46:36 12° ESE 23:47:24 12° E 23:49:35 10° ENE
NOSS 2-2 (C) 4.4 23:44:49 10° NW 23:50:13 85° NE 23:52:23 47° SE
Cosmos 1269 Rocket 3.9 23:50:05 73° WSW 23:50:26 77° WNW 23:55:45 10° NNE
SL-16 R/B 3.0 23:45:03 10° NNW 23:50:31 47° ENE 23:52:42 32° ESE
Cosmos 1992 Rocket 4.4 23:46:01 10° NNW 23:51:11 56° ENE 23:52:06 49° ESE
PSLV R/B 3.7 23:47:30 10° NNE 23:52:12 85° NNW 23:52:12 85° NNW
Resurs 1-4 Rocket 3.9 23:50:30 10° NE 23:54:15 19° E 23:55:13 18° ESE
